{"data":{"norad_id":63470,"intl_designator":"2025-070L","name":"STARLINK-33637","alt_names":[],"object_type":"PAYLOAD","status":"ACTIVE","operator":null,"country":"US","launch_date":"2025-04-06","launch_site_code":"AFETR","launch_vehicle":null,"mission":null,"orbit_class":"UNKNOWN","rcs_meters":null,"size_class":null,"mass_kg":null,"dimensions":null,"purposes":["comms"],"wikipedia_slug":null,"has_3d_model":false,"image_url":null,"decayed_at":null,"tle_current":{"epoch":"2026-05-24T19:32:11.707296Z","epoch_age_seconds":101669,"freshness":"FRESH","line1":"1 63470U 25070L   26144.81402439  .00010216  00000+0  38016-3 0  9992","line2":"2 63470  42.9954 190.3231 0000952 310.5276  49.5493 15.27586325 64619","mean_motion":15.27586325,"eccentricity":9.52e-5,"inclination_deg":42.9954,"raan_deg":190.3231,"arg_perigee_deg":310.5276,"mean_anomaly_deg":49.5493,"bstar":0.00038016,"rev_number":6461,"period_min":94.2663584004,"perigee_km":482.37697366627,"apogee_km":483.68333989292,"semimajor_km":6861.1671567796,"source":"CELESTRAK","updated_at":"2026-05-25T13:38:20.006750Z"}}}